Weather History for Sanford, FL

Change the Weather History Date:

Monday, July 15, 2013

  Actual Average Record
Temperature  
Mean Temperature 78 °F -  
Max Temperature 87 °F 91 °F 100 °F (1981)
Min Temperature 71 °F 71 °F 67 °F (1974)
Cooling Degree Days 14    
Growing Degree Days 28 (Base 50)    
Moisture  
Dew Point 72 °F    
Average Humidity 82    
Maximum Humidity 97    
Minimum Humidity 63    
Precipitation  
Precipitation 0.09 in - - ()
Sea Level Pressure  
Sea Level Pressure 30.10 in    
Wind  
Wind Speed 6 mph (East)    
Max Wind Speed 18 mph    
Max Gust Speed 24 mph    
Visibility 10 miles    
Events Rain    
Averages and records for this station are not official NWS values.
T = Trace of Precipitation, MM = Missing Value Source: NWS Daily Summary

Daily Weather History Graph

Daily Weather History Graph

Search for Another Location

Airport:

Trip Planner

Search our weather history database for the weather conditions in past years. The results will help you decide how hot, cold, wet, or windy it might be!

Date:

Astronomy

Jul. 15, 2013 Rise Set
Actual Time 6:36 AM EDT 8:24 PM EDT
Civil Twilight 6:10 AM EDT 8:51 PM EDT
Nautical Twilight 5:38 AM EDT 9:23 PM EDT
Astronomical Twilight 5:04 AM EDT 9:56 PM EDT
Moon 1:15 PM EDT (7/15) 12:13 AM EDT (7/15)
Length of Visible Light 14h 40m
Length of Day
13h 47m
Waxing Crescent, 45% of the Moon is Illuminated
Jul 15
Waxing Crescent
Jul 15
First Quarter
Jul 22
Full
Jul 29
Last Quarter
Aug 6
New

Hourly Weather History & Observations

Time (EDT) Temp. Heat Index Dew Point Humidity Pressure Visibility Wind Dir Wind Speed Gust Speed Precip Events Conditions
12:01 AM 73.4 °F - 71.6 °F 94% 30.11 in 10.0 mi SSE 4.6 mph - N/A   Mostly Cloudy
12:27 AM 73.4 °F - 71.6 °F 94% 30.11 in 10.0 mi ESE 4.6 mph - N/A   Scattered Clouds
12:53 AM 73.0 °F - 71.1 °F 93% 30.12 in 10.0 mi SE 4.6 mph - N/A   Clear
1:53 AM 73.0 °F - 71.1 °F 93% 30.11 in 10.0 mi ESE 4.6 mph - N/A   Clear
2:53 AM 72.0 °F - 71.1 °F 97% 30.11 in 10.0 mi Calm Calm - N/A   Clear
3:53 AM 72.0 °F - 71.1 °F 97% 30.11 in 10.0 mi Calm Calm - N/A   Clear
4:53 AM 71.1 °F - 70.0 °F 96% 30.10 in 10.0 mi Calm Calm - N/A   Clear
5:53 AM 71.1 °F - 70.0 °F 96% 30.10 in 10.0 mi Calm Calm - N/A   Clear
6:53 AM 71.1 °F - 70.0 °F 96% 30.10 in 10.0 mi North 3.5 mph - N/A   Clear
7:53 AM 75.0 °F - 73.0 °F 94% 30.12 in 10.0 mi North 3.5 mph - N/A   Clear
8:53 AM 79.0 °F - 72.0 °F 79% 30.12 in 10.0 mi NNE 5.8 mph - N/A   Clear
9:53 AM 82.0 °F 86.7 °F 72.0 °F 71% 30.12 in 10.0 mi NE 8.1 mph - N/A   Clear
10:53 AM 86.0 °F 93.0 °F 73.0 °F 65% 30.13 in 10.0 mi ENE 6.9 mph - N/A   Mostly Cloudy
11:53 AM 81.0 °F 85.8 °F 73.0 °F 77% 30.12 in 10.0 mi NNE 11.5 mph - N/A   Mostly Cloudy
12:53 PM 84.9 °F 91.4 °F 73.0 °F 67% 30.11 in 10.0 mi NE 9.2 mph - N/A   Clear
1:34 PM 80.6 °F 85.4 °F 73.4 °F 79% 30.10 in 1.8 mi SE 8.1 mph 21.9 mph 0.08 in Rain Rain
1:43 PM 78.8 °F - 73.4 °F 83% 30.10 in 4.0 mi SE 10.4 mph 17.3 mph 0.09 in Rain Light Rain
1:53 PM 80.1 °F 84.5 °F 73.9 °F 81% 30.10 in 10.0 mi SE 8.1 mph - 0.09 in   Overcast
2:53 PM 86.0 °F 92.2 °F 72.0 °F 63% 30.08 in 10.0 mi ENE 10.4 mph - 0.00 in   Scattered Clouds
3:53 PM 86.0 °F 92.2 °F 72.0 °F 63% 30.07 in 10.0 mi ENE 10.4 mph - N/A   Partly Cloudy
4:53 PM 84.9 °F 91.4 °F 73.0 °F 67% 30.06 in 10.0 mi ENE 16.1 mph 21.9 mph 0.00 in   Mostly Cloudy
5:53 PM 82.9 °F 88.8 °F 73.0 °F 72% 30.05 in 10.0 mi ENE 13.8 mph 21.9 mph N/A   Scattered Clouds
6:53 PM 82.0 °F 86.7 °F 72.0 °F 71% 30.06 in 10.0 mi East 18.4 mph 24.2 mph N/A   Partly Cloudy
7:53 PM 80.1 °F 84.2 °F 73.0 °F 79% 30.07 in 10.0 mi East 17.3 mph 20.7 mph N/A   Partly Cloudy
8:53 PM 79.0 °F - 73.0 °F 82% 30.09 in 10.0 mi East 9.2 mph - N/A   Partly Cloudy
9:53 PM 78.1 °F - 73.0 °F 84% 30.11 in 10.0 mi East 8.1 mph - N/A   Clear
10:53 PM 77.0 °F - 73.0 °F 88% 30.14 in 10.0 mi East 9.2 mph - N/A   Partly Cloudy
11:53 PM 75.9 °F - 72.0 °F 87% 30.15 in 10.0 mi ESE 6.9 mph - N/A   Clear